Home > Weather > Cheltenham > Past weeks

Flag for United Kingdom Past Weather in Cheltenham, England, United Kingdom — Yesterday and Last 2 Weeks

Now
58 °F

Cool.


Feels Like: 57 °F
Forecast: 50 / 73 °F
Wind: 5 mph from West

Location: Pershore

Current Time: Aug 29, 2016 at 4:53:15 AM

Latest Report: Aug 29, 2016 at 4:00 AM


Visibility: 31 mi

Pressure: 30.12 "Hg

Humidity: 92%

Dew Point: 55 °F

Location of CheltenhamLocation

Past Weather in Cheltenham — Graph

°F

Cheltenham Temperature Yesterday

Maximum temperature yesterday: 73 °F (at 6:00 PM)
Minimum temperature yesterday: 58 °F (at 11:00 PM)
Average temperature yesterday: 65 °F

High & Low Weather Summary for the Past Weeks

 TemperatureHumidityPressure
High84 °F (Aug 23, 5:00 PM)100% (Aug 27, 8:00 AM)30.33 "Hg (Aug 27, 8:00 AM)
Low45 °F (Aug 15, 6:00 AM)41% (Aug 15, 5:00 PM)29.57 "Hg (Aug 20, 7:00 AM)
Average64 °F78%30.01 "Hg
* Reported Aug 14 4:00 AM — Aug 29 3:00 AM, Cheltenham, Weather by CustomWeather, © 2016

Note: Actual official high and low records may vary slightly from our data, if they occured in-between our weather recording intervals... More about our weather records

Advertising

Cheltenham Weather History for the Previous 24 Hours

Scroll right to see more
 ConditionsComfort  
Time TempWeatherWind HumidityBarometerVisibility
3:00 AM
Mon, Aug 29
57 °FCool.3 mph94%30.10 "Hg14 mi
2:00 AM59 °FCool.5 mph93%30.10 "Hg17 mi
1:00 AM59 °FCool.3 mph93%30.09 "Hg22 mi
12:00 AM59 °FCool.5 mph90%30.08 "Hg28 mi
11:00 PM
Sun, Aug 28
58 °FCool.3 mph90%30.07 "Hg28 mi
10:00 PM60 °FCool.6 mph87%30.03 "Hg28 mi
9:00 PM61 °FCool.3 mph85%30.01 "Hg28 mi
8:00 PM65 °FMild.7 mph82%29.98 "Hg31 mi
7:00 PM66 °FLight rain. Cloudy.7 mph84%29.95 "Hg6 mi
6:00 PM73 °FMild.5 mph67%29.92 "Hg25 mi
5:00 PM70 °FMild.3 mph73%29.92 "Hg25 mi
4:00 PM70 °FRain showers. Cloudy.5 mph80%29.91 "Hg18 mi
3:00 PM69 °FMild.3 mph82%29.90 "Hg31 mi
2:00 PM67 °FLots of rain. Cloudy.3 mph86%29.90 "Hg19 mi
1:00 PM69 °FMild.6 mph73%29.89 "Hg25 mi
12:00 PM67 °FMild.6 mph79%29.89 "Hg31 mi
11:00 AM66 °FMild.9 mph81%29.89 "Hg22 mi
10:00 AM64 °FMild.7 mph85%29.88 "Hg16 mi
9:00 AM63 °FMild.6 mph88%29.88 "Hg13 mi
7:00 AM60 °FFog.5 mph96%29.86 "Hg2 mi
6:00 AM61 °FFog.6 mph94%29.85 "Hg3 mi
5:00 AM62 °FSmoke.6 mph94%29.85 "Hg2 mi
4:00 AM63 °FFog.5 mph94%29.85 "Hg3 mi
Weather by CustomWeather, © 2016

See weather overviewHow to use our weather pages